Zurück zum Katalog

STARLINK-5307

AktivKommunikationVLEO
NORAD 55658·PAYLOAD·🇺🇸 United States

Gestartet Feb 17, 2023 von Vandenberg Space Force Base

Loading…

Nächste Überflüge (nächste 24 Stunden)

TLE

AktuellSource: CelesTrak SupGP

Epoche: Sep 15, 2026, 02:04 UTC

1 55658C 23021AG  26258.08659722 -.00054966  00000+0 -46067-2 0  2583
2 55658  70.0010  66.8023 0002605 273.3870 102.9020 14.98356406    18

Verfolge STARLINK-5307 in Echtzeit mit AllMySat

Download on the App Store